Flag for Germany Weather past 2 weeks in Leutkirch im Allgäu, Baden-Württemberg, Germany

Now
37 °F

Light rain. Overcast.


Feels Like: 35 °F
Forecast: 33 / 50 °F
Wind: 3 mph from Southwest

Location: Kempten

Current Time: Mar 27, 2015 at 4:42:08 AM

Latest Report: Mar 27, 2015 at 3:00 AM


Visibility: 7 mi

Pressure: 29.97 "Hg

Humidity: 93%

Dew point: 35 °F

Location of Leutkirch im AllgäuLocation

Historic Weather in Leutkirch im Allgäu — Graph

°F

Leutkirch im Allgäu temperature yesterday

Maximum temperature yesterday: 44 °F (at 12:00 AM)
Minimum temperature yesterday: 37 °F (at 8:00 AM)
Average temperature yesterday: 41 °F

Past Weeks' High & Low Weather Summary

 TemperatureHumidityPressure
High63 °F (Mar 17, 2:00 PM)98% (Mar 22, 2:00 AM)30.50 "Hg (Mar 22, 2:00 AM)
Low23 °F (Mar 14, 7:00 AM)27% (Mar 17, 2:00 PM)29.47 "Hg (Mar 25, 1:00 PM)
Average41 °F73%30.09 "Hg
* Reported Mar 12 3:00 AM — Mar 27 3:00 AM, Leutkirch im Allgäu, Weather by CustomWeather, © 2015

Note: Actual official high and low records may vary slightly from our data, if they occured in-between our weather recording intervals... More about our weather records

Advertising

Leutkirch im Allgäu weather history for previous 24 hours

 ConditionsComfort  
Time TempWeatherWind HumidityBarometerVisibility
3:00 AM
Fri, Mar 27
37 °FLight rain. Overcast.3 mph93%29.97 "Hg7 mi
2:00 AM37 °FDrizzle. Overcast.3 mph90%29.96 "Hg10 mi
1:00 AM39 °FDrizzle. Overcast.6 mph87%29.94 "Hg4 mi
12:00 AM39 °FLight rain. Overcast.2 mph87%29.93 "Hg6 mi
11:00 PM
Thu, Mar 26
41 °FOvercast.3 mph78%29.91 "Hg7 mi
10:00 PM40 °FOvercast.2 mph81%29.90 "Hg7 mi
9:00 PM40 °FOvercast.3 mph80%29.89 "Hg7 mi
8:00 PM41 °FOvercast.3 mph80%29.89 "Hg8 mi
7:00 PM41 °FOvercast.3 mph78%29.88 "Hg10 mi
6:00 PM41 °FOvercast.3 mph77%29.86 "Hg13 mi
5:00 PM42 °FOvercast.3 mph75%29.84 "Hg16 mi
3:00 PM42 °FOvercast.3 mph73%29.82 "Hg19 mi
2:00 PM42 °FOvercast.3 mph77%29.82 "Hg17 mi
1:00 PM42 °FOvercast.2 mph78%29.83 "Hg19 mi
12:00 PM42 °FOvercast.3 mph77%29.84 "Hg22 mi
11:00 AM39 °FOvercast.5 mph83%29.86 "Hg25 mi
9:00 AM38 °FDrizzle. Overcast.3 mph87%29.85 "Hg16 mi
8:00 AM37 °FLight rain. Low clouds.3 mph89%29.85 "Hg11 mi
7:00 AM38 °FLight rain. Low clouds.3 mph90%29.83 "Hg12 mi
6:00 AM39 °FOvercast.3 mph87%29.80 "Hg22 mi
5:00 AM39 °FOvercast.3 mph85%29.77 "Hg25 mi
Weather by CustomWeather, © 2015

See weather overviewHow to use our weather pages